owner,sensor,date,latitude,longitude,air_pressure(mBar),qcFlag 
NDBC,ioos:station:wmo:42001:1,2015-09-01T00:30:00Z,25.8880,-89.6580,1016.0,1111122 
NDBC,ioos:station:wmo:42001:1,2015-09-01T01:30:00Z,25.8880,-89.6580,1016.3,1111122 
NDBC,ioos:station:wmo:42001:1,2015-09-01T02:30:00Z,25.8880,-89.6580,1016.4,1111122 
NDBC,ioos:station:wmo:42001:1,2015-09-01T03:30:00Z,25.8880,-89.6580,1016.3,1111122 
NDBC,ioos:station:wmo:42001:1,2015-09-01T04:30:00Z,25.8880,-89.6580,1016.5,1111122 
NDBC,ioos:station:wmo:42001:1,2015-09-01T05:40:00Z,25.8880,-89.6580,1016.5,1111122 
NDBC,ioos:station:wmo:42001:1,2015-09-01T06:10:00Z,25.8880,-89.6580,1016.4,1111122 
NDBC,ioos:station:wmo:42001:1,2015-09-01T07:20:00Z,25.8880,-89.6580,1016.3,1111122 
NDBC,ioos:station:wmo:42001:1,2015-09-01T10:20:00Z,25.8880,-89.6580,1015.6,1111122 
NDBC,ioos:station:wmo:42001:1,2015-09-01T11:20:00Z,25.8880,-89.6580,1015.8,1111122 
NDBC,ioos:station:wmo:42001:1,2015-09-01T12:00:00Z,25.8880,-89.6580,1016.0,1111122 
NDBC,ioos:station:wmo:42001:1,2015-09-01T13:30:00Z,25.8880,-89.6580,1017.0,1111122 
NDBC,ioos:station:wmo:42001:1,2015-09-01T14:20:00Z,25.8880,-89.6580,1017.3,1111122 
NDBC,ioos:station:wmo:42001:1,2015-09-01T16:20:00Z,25.8880,-89.6580,1017.6,1111122 
NDBC,ioos:station:wmo:42001:1,2015-09-01T17:20:00Z,25.8880,-89.6580,1017.1,1111122 
NDBC,ioos:station:wmo:42001:1,2015-09-01T17:50:00Z,25.8880,-89.6580,1017.0,1111122 
NDBC,ioos:station:wmo:42001:1,2015-09-01T19:20:00Z,25.8880,-89.6580,1016.0,1111122 
NDBC,ioos:station:wmo:42001:1,2015-09-01T20:00:00Z,25.8880,-89.6580,1015.9,1111122 
NDBC,ioos:station:wmo:42001:1,2015-09-01T21:20:00Z,25.8880,-89.6580,1015.4,1111122 
NDBC,ioos:station:wmo:42001:1,2015-09-01T22:20:00Z,25.8880,-89.6580,1015.5,1111122 
NDBC,ioos:station:wmo:42001:1,2015-09-01T23:00:00Z,25.8880,-89.6580,1015.5,1111122 
NDBC,ioos:station:wmo:42001:1,2015-09-02T00:30:00Z,25.8880,-89.6580,1015.9,1111122 
NDBC,ioos:station:wmo:42001:1,2015-09-02T01:40:00Z,25.8880,-89.6580,1016.6,1111122 
NDBC,ioos:station:wmo:42001:1,2015-09-02T02:40:00Z,25.8880,-89.6580,1016.9,1111122 
NDBC,ioos:station:wmo:42001:1,2015-09-02T03:40:00Z,25.8880,-89.6580,1017.1,1111122 
NDBC,ioos:station:wmo:42001:1,2015-09-02T04:30:00Z,25.8880,-89.6580,1017.5,1111122 
NDBC,ioos:station:wmo:42001:1,2015-09-02T05:40:00Z,25.8880,-89.6580,1017.0,1111122 
NDBC,ioos:station:wmo:42001:1,2015-09-02T06:40:00Z,25.8880,-89.6580,1016.6,1111122 
NDBC,ioos:station:wmo:42001:1,2015-09-02T07:30:00Z,25.8880,-89.6580,1016.4,1111122 
NDBC,ioos:station:wmo:42001:1,2015-09-02T09:20:00Z,25.8880,-89.6580,1016.0,1111122 
NDBC,ioos:station:wmo:42001:1,2015-09-02T10:20:00Z,25.8880,-89.6580,1015.9,1111122 
NDBC,ioos:station:wmo:42001:1,2015-09-02T11:40:00Z,25.8880,-89.6580,1016.6,1111122 
NDBC,ioos:station:wmo:42001:1,2015-09-02T12:20:00Z,25.8880,-89.6580,1017.0,1111122 
NDBC,ioos:station:wmo:42001:1,2015-09-02T12:50:00Z,25.8880,-89.6580,1017.4,1111122 
NDBC,ioos:station:wmo:42001:1,2015-09-02T13:20:00Z,25.8880,-89.6580,1017.1,1111122 
NDBC,ioos:station:wmo:42001:1,2015-09-02T15:00:00Z,25.8880,-89.6580,1017.8,1111122 
NDBC,ioos:station:wmo:42001:1,2015-09-02T16:20:00Z,25.8880,-89.6580,1018.1,1111122 
NDBC,ioos:station:wmo:42001:1,2015-09-02T17:20:00Z,25.8880,-89.6580,1017.5,1111122 
NDBC,ioos:station:wmo:42001:1,2015-09-02T18:30:00Z,25.8880,-89.6580,1017.1,1111122 
NDBC,ioos:station:wmo:42001:1,2015-09-02T19:20:00Z,25.8880,-89.6580,1016.4,1111122 
NDBC,ioos:station:wmo:42001:1,2015-09-02T20:20:00Z,25.8880,-89.6580,1015.5,1111122 
NDBC,ioos:station:wmo:42001:1,2015-09-02T21:20:00Z,25.8880,-89.6580,1015.8,1111122 
NDBC,ioos:station:wmo:42001:1,2015-09-02T22:10:00Z,25.8880,-89.6580,1015.4,1111122 
NDBC,ioos:station:wmo:42001:1,2015-09-03T00:50:00Z,25.8880,-89.6580,1016.3,1111122 
NDBC,ioos:station:wmo:42001:1,2015-09-03T03:20:00Z,25.8880,-89.6580,1016.6,1111122 
NDBC,ioos:station:wmo:42001:1,2015-09-03T04:30:00Z,25.8880,-89.6580,1016.4,1111122 
NDBC,ioos:station:wmo:42001:1,2015-09-03T05:40:00Z,25.8880,-89.6580,1014.5,1111122 
NDBC,ioos:station:wmo:42001:1,2015-09-03T06:20:00Z,25.8880,-89.6580,1014.3,1111122 
NDBC,ioos:station:wmo:42001:1,2015-09-03T08:00:00Z,25.8880,-89.6580,1014.5,1111122 
NDBC,ioos:station:wmo:42001:1,2015-09-03T08:20:00Z,25.8880,-89.6580,1014.5,1111122 
NDBC,ioos:station:wmo:42001:1,2015-09-03T09:30:00Z,25.8880,-89.6580,1014.1,1111122 
NDBC,ioos:station:wmo:42001:1,2015-09-03T10:30:00Z,25.8880,-89.6580,1014.8,1111122 
NDBC,ioos:station:wmo:42001:1,2015-09-03T11:20:00Z,25.8880,-89.6580,1015.5,1111122 
NDBC,ioos:station:wmo:42001:1,2015-09-03T12:30:00Z,25.8880,-89.6580,1014.9,1111122 
NDBC,ioos:station:wmo:42001:1,2015-09-03T13:40:00Z,25.8880,-89.6580,1015.0,1111122 
NDBC,ioos:station:wmo:42001:1,2015-09-03T14:40:00Z,25.8880,-89.6580,1015.0,1111122 
NDBC,ioos:station:wmo:42001:1,2015-09-03T15:40:00Z,25.8880,-89.6580,1015.9,1111122 
NDBC,ioos:station:wmo:42001:1,2015-09-03T16:20:00Z,25.8880,-89.6580,1016.0,1111122 
NDBC,ioos:station:wmo:42001:1,2015-09-03T17:20:00Z,25.8880,-89.6580,1015.9,1111122 
NDBC,ioos:station:wmo:42001:1,2015-09-03T17:30:00Z,25.8880,-89.6580,1015.6,1111122 
NDBC,ioos:station:wmo:42001:1,2015-09-03T18:20:00Z,25.8880,-89.6580,1015.1,1111122 
NDBC,ioos:station:wmo:42001:1,2015-09-03T18:50:00Z,25.8880,-89.6580,1015.0,1111122 
NDBC,ioos:station:wmo:42001:1,2015-09-03T19:20:00Z,25.8880,-89.6580,1014.6,1111122 
NDBC,ioos:station:wmo:42001:1,2015-09-03T20:20:00Z,25.8880,-89.6580,1014.3,1111122 
NDBC,ioos:station:wmo:42001:1,2015-09-03T21:20:00Z,25.8880,-89.6580,1013.8,1111122 
NDBC,ioos:station:wmo:42001:1,2015-09-04T00:10:00Z,25.8880,-89.6580,1013.5,1111122 
NDBC,ioos:station:wmo:42001:1,2015-09-04T03:00:00Z,25.8880,-89.6580,1014.8,1111122 
NDBC,ioos:station:wmo:42001:1,2015-09-04T03:10:00Z,25.8880,-89.6580,1014.9,1111122 
NDBC,ioos:station:wmo:42001:1,2015-09-04T04:10:00Z,25.8880,-89.6580,1015.0,1111122 
NDBC,ioos:station:wmo:42001:1,2015-09-04T04:30:00Z,25.8880,-89.6580,1014.4,1111122 
NDBC,ioos:station:wmo:42001:1,2015-09-04T05:20:00Z,25.8880,-89.6580,1013.6,1111122 
NDBC,ioos:station:wmo:42001:1,2015-09-04T09:20:00Z,25.8880,-89.6580,1014.0,1111122 
NDBC,ioos:station:wmo:42001:1,2015-09-04T10:40:00Z,25.8880,-89.6580,1014.4,1111122 
NDBC,ioos:station:wmo:42001:1,2015-09-04T11:40:00Z,25.8880,-89.6580,1015.0,1111122 
NDBC,ioos:station:wmo:42001:1,2015-09-04T12:10:00Z,25.8880,-89.6580,1015.1,1111122 
NDBC,ioos:station:wmo:42001:1,2015-09-04T13:40:00Z,25.8880,-89.6580,1016.1,1111122 
NDBC,ioos:station:wmo:42001:1,2015-09-04T14:40:00Z,25.8880,-89.6580,1016.5,1111122 
NDBC,ioos:station:wmo:42001:1,2015-09-04T15:40:00Z,25.8880,-89.6580,1016.6,1111122 
NDBC,ioos:station:wmo:42001:1,2015-09-04T16:30:00Z,25.8880,-89.6580,1016.5,1111122 
NDBC,ioos:station:wmo:42001:1,2015-09-04T17:40:00Z,25.8880,-89.6580,1016.3,1111122 
NDBC,ioos:station:wmo:42001:1,2015-09-04T18:40:00Z,25.8880,-89.6580,1015.9,1111122 
NDBC,ioos:station:wmo:42001:1,2015-09-04T19:40:00Z,25.8880,-89.6580,1015.0,1111122 
NDBC,ioos:station:wmo:42001:1,2015-09-04T20:40:00Z,25.8880,-89.6580,1014.5,1111122 
NDBC,ioos:station:wmo:42001:1,2015-09-04T21:30:00Z,25.8880,-89.6580,1014.5,1111122 
NDBC,ioos:station:wmo:42001:1,2015-09-04T21:40:00Z,25.8880,-89.6580,1014.5,1111122 
NDBC,ioos:station:wmo:42001:1,2015-09-04T22:10:00Z,25.8880,-89.6580,1014.6,1111122 
NDBC,ioos:station:wmo:42001:1,2015-09-04T22:30:00Z,25.8880,-89.6580,1014.6,1111122 
NDBC,ioos:station:wmo:42001:1,2015-09-04T22:40:00Z,25.8880,-89.6580,1014.9,1111122 
NDBC,ioos:station:wmo:42001:1,2015-09-04T23:20:00Z,25.8880,-89.6580,1014.9,1111122 
NDBC,ioos:station:wmo:42001:1,2015-09-05T00:00:00Z,25.8880,-89.6580,1015.0,1111122 
NDBC,ioos:station:wmo:42001:1,2015-09-05T00:10:00Z,25.8880,-89.6580,1015.0,1111122 
NDBC,ioos:station:wmo:42001:1,2015-09-05T01:50:00Z,25.8880,-89.6580,1015.5,1111122 
NDBC,ioos:station:wmo:42001:1,2015-09-05T02:40:00Z,25.8880,-89.6580,1015.6,1111122 
NDBC,ioos:station:wmo:42001:1,2015-09-05T07:20:00Z,25.8880,-89.6580,1015.5,1111122 
NDBC,ioos:station:wmo:42001:1,2015-09-05T10:20:00Z,25.8880,-89.6580,1015.9,1111122 
NDBC,ioos:station:wmo:42001:1,2015-09-05T11:20:00Z,25.8880,-89.6580,1016.4,1111122 
NDBC,ioos:station:wmo:42001:1,2015-09-05T12:20:00Z,25.8880,-89.6580,1016.6,1111122 
NDBC,ioos:station:wmo:42001:1,2015-09-05T13:30:00Z,25.8880,-89.6580,1016.8,1111122 
NDBC,ioos:station:wmo:42001:1,2015-09-05T14:40:00Z,25.8880,-89.6580,1017.1,1111122 
NDBC,ioos:station:wmo:42001:1,2015-09-05T15:40:00Z,25.8880,-89.6580,1017.9,1111122 
NDBC,ioos:station:wmo:42001:1,2015-09-05T16:30:00Z,25.8880,-89.6580,1017.6,1111122 
NDBC,ioos:station:wmo:42001:1,2015-09-05T17:40:00Z,25.8880,-89.6580,1017.5,1111122 
NDBC,ioos:station:wmo:42001:1,2015-09-05T18:40:00Z,25.8880,-89.6580,1016.9,1111122 
NDBC,ioos:station:wmo:42001:1,2015-09-05T19:40:00Z,25.8880,-89.6580,1016.3,1111122 
NDBC,ioos:station:wmo:42001:1,2015-09-05T20:40:00Z,25.8880,-89.6580,1015.8,1111122 
NDBC,ioos:station:wmo:42001:1,2015-09-05T21:40:00Z,25.8880,-89.6580,1015.6,1111122 
NDBC,ioos:station:wmo:42001:1,2015-09-05T22:30:00Z,25.8880,-89.6580,1015.3,1111122 
NDBC,ioos:station:wmo:42001:1,2015-09-05T22:50:00Z,25.8880,-89.6580,1015.0,1111122 
NDBC,ioos:station:wmo:42001:1,2015-09-06T00:30:00Z,25.8880,-89.6580,1015.3,1111122 
NDBC,ioos:station:wmo:42001:1,2015-09-06T01:30:00Z,25.8880,-89.6580,1015.5,1111122 
NDBC,ioos:station:wmo:42001:1,2015-09-06T02:20:00Z,25.8880,-89.6580,1016.0,1111122 
NDBC,ioos:station:wmo:42001:1,2015-09-06T03:20:00Z,25.8880,-89.6580,1016.8,1111122 
NDBC,ioos:station:wmo:42001:1,2015-09-06T04:20:00Z,25.8880,-89.6580,1016.5,1111122 
NDBC,ioos:station:wmo:42001:1,2015-09-06T04:30:00Z,25.8880,-89.6580,1016.5,1111122 
NDBC,ioos:station:wmo:42001:1,2015-09-06T06:00:00Z,25.8880,-89.6580,1015.6,1111122 
NDBC,ioos:station:wmo:42001:1,2015-09-06T06:20:00Z,25.8880,-89.6580,1015.5,1111122 
NDBC,ioos:station:wmo:42001:1,2015-09-06T09:10:00Z,25.8880,-89.6580,1014.8,1111122 
NDBC,ioos:station:wmo:42001:1,2015-09-06T10:20:00Z,25.8880,-89.6580,1015.3,1111122 
NDBC,ioos:station:wmo:42001:1,2015-09-06T11:20:00Z,25.8880,-89.6580,1015.5,1111122 
NDBC,ioos:station:wmo:42001:1,2015-09-06T12:20:00Z,25.8880,-89.6580,1015.8,1111122 
NDBC,ioos:station:wmo:42001:1,2015-09-06T13:20:00Z,25.8880,-89.6580,1016.1,1111122 
NDBC,ioos:station:wmo:42001:1,2015-09-06T14:20:00Z,25.8880,-89.6580,1016.3,1111122 
NDBC,ioos:station:wmo:42001:1,2015-09-06T15:20:00Z,25.8880,-89.6580,1016.5,1111122 
NDBC,ioos:station:wmo:42001:1,2015-09-06T16:20:00Z,25.8880,-89.6580,1016.5,1111122 
NDBC,ioos:station:wmo:42001:1,2015-09-06T17:20:00Z,25.8880,-89.6580,1016.0,1111122 
NDBC,ioos:station:wmo:42001:1,2015-09-06T18:20:00Z,25.8880,-89.6580,1015.5,1111122 
NDBC,ioos:station:wmo:42001:1,2015-09-06T19:40:00Z,25.8880,-89.6580,1014.6,1111122 
NDBC,ioos:station:wmo:42001:1,2015-09-06T20:40:00Z,25.8880,-89.6580,1014.9,1111122 
NDBC,ioos:station:wmo:42001:1,2015-09-06T21:20:00Z,25.8880,-89.6580,1014.6,1111122 
NDBC,ioos:station:wmo:42001:1,2015-09-06T22:40:00Z,25.8880,-89.6580,1014.5,1111122 
NDBC,ioos:station:wmo:42001:1,2015-09-06T23:20:00Z,25.8880,-89.6580,1014.5,1111122 
NDBC,ioos:station:wmo:42001:1,2015-09-07T01:30:00Z,25.8880,-89.6580,1014.8,1111122 
NDBC,ioos:station:wmo:42001:1,2015-09-07T02:40:00Z,25.8880,-89.6580,1014.8,1111122 
NDBC,ioos:station:wmo:42001:1,2015-09-07T03:40:00Z,25.8880,-89.6580,1014.8,1111122 
NDBC,ioos:station:wmo:42001:1,2015-09-07T04:30:00Z,25.8880,-89.6580,1015.0,1111122 
NDBC,ioos:station:wmo:42001:1,2015-09-07T05:30:00Z,25.8880,-89.6580,1014.3,1111122 
NDBC,ioos:station:wmo:42001:1,2015-09-07T06:00:00Z,25.8880,-89.6580,1013.9,1111122 
NDBC,ioos:station:wmo:42001:1,2015-09-07T06:20:00Z,25.8880,-89.6580,1013.6,1111122 
NDBC,ioos:station:wmo:42001:1,2015-09-07T07:50:00Z,25.8880,-89.6580,1013.0,1111122 
NDBC,ioos:station:wmo:42001:1,2015-09-07T08:20:00Z,25.8880,-89.6580,1013.0,1111122 
NDBC,ioos:station:wmo:42001:1,2015-09-07T10:00:00Z,25.8880,-89.6580,1013.5,1111122 
NDBC,ioos:station:wmo:42001:1,2015-09-07T13:20:00Z,25.8880,-89.6580,1014.5,1111122 
NDBC,ioos:station:wmo:42001:1,2015-09-07T14:20:00Z,25.8880,-89.6580,1015.0,1111122 
NDBC,ioos:station:wmo:42001:1,2015-09-07T15:20:00Z,25.8880,-89.6580,1015.5,1111122 
NDBC,ioos:station:wmo:42001:1,2015-09-07T16:10:00Z,25.8880,-89.6580,1015.4,1111122 
NDBC,ioos:station:wmo:42001:1,2015-09-07T17:10:00Z,25.8880,-89.6580,1015.0,1111122 
NDBC,ioos:station:wmo:42001:1,2015-09-07T18:20:00Z,25.8880,-89.6580,1014.4,1111122 
NDBC,ioos:station:wmo:42001:1,2015-09-07T18:30:00Z,25.8880,-89.6580,1014.1,1111122 
NDBC,ioos:station:wmo:42001:1,2015-09-07T20:20:00Z,25.8880,-89.6580,1013.4,1111122 
NDBC,ioos:station:wmo:42001:1,2015-09-07T21:40:00Z,25.8880,-89.6580,1012.9,1111122 
NDBC,ioos:station:wmo:42001:1,2015-09-07T22:30:00Z,25.8880,-89.6580,1012.9,1111122 
NDBC,ioos:station:wmo:42001:1,2015-09-07T23:10:00Z,25.8880,-89.6580,1013.4,1111122 
NDBC,ioos:station:wmo:42001:1,2015-09-08T00:30:00Z,25.8880,-89.6580,1013.6,1111122 
NDBC,ioos:station:wmo:42001:1,2015-09-08T01:40:00Z,25.8880,-89.6580,1013.5,1111122 
NDBC,ioos:station:wmo:42001:1,2015-09-08T02:40:00Z,25.8880,-89.6580,1014.5,1111122 
NDBC,ioos:station:wmo:42001:1,2015-09-08T03:40:00Z,25.8880,-89.6580,1014.8,1111122 
NDBC,ioos:station:wmo:42001:1,2015-09-08T04:40:00Z,25.8880,-89.6580,1014.5,1111122 
NDBC,ioos:station:wmo:42001:1,2015-09-08T05:30:00Z,25.8880,-89.6580,1013.9,1111122 
NDBC,ioos:station:wmo:42001:1,2015-09-08T06:20:00Z,25.8880,-89.6580,1013.6,1111122 
NDBC,ioos:station:wmo:42001:1,2015-09-08T07:20:00Z,25.8880,-89.6580,1013.1,1111122 
NDBC,ioos:station:wmo:42001:1,2015-09-08T08:30:00Z,25.8880,-89.6580,1013.0,1111122 
NDBC,ioos:station:wmo:42001:1,2015-09-08T09:30:00Z,25.8880,-89.6580,1013.1,1111122 
NDBC,ioos:station:wmo:42001:1,2015-09-08T10:30:00Z,25.8880,-89.6580,1013.4,1111122 
NDBC,ioos:station:wmo:42001:1,2015-09-08T11:20:00Z,25.8880,-89.6580,1013.6,1111122 
NDBC,ioos:station:wmo:42001:1,2015-09-08T12:20:00Z,25.8880,-89.6580,1014.0,1111122 
NDBC,ioos:station:wmo:42001:1,2015-09-08T13:20:00Z,25.8880,-89.6580,1014.4,1111122 
NDBC,ioos:station:wmo:42001:1,2015-09-08T14:20:00Z,25.8880,-89.6580,1014.8,1111122 
NDBC,ioos:station:wmo:42001:1,2015-09-08T15:20:00Z,25.8880,-89.6580,1015.5,1111122 
NDBC,ioos:station:wmo:42001:1,2015-09-08T16:20:00Z,25.8880,-89.6580,1016.1,1111122 
NDBC,ioos:station:wmo:42001:1,2015-09-08T17:20:00Z,25.8880,-89.6580,1015.3,1111122 
NDBC,ioos:station:wmo:42001:1,2015-09-08T18:20:00Z,25.8880,-89.6580,1014.8,1111122 
NDBC,ioos:station:wmo:42001:1,2015-09-08T19:00:00Z,25.8880,-89.6580,1014.1,1111122 
NDBC,ioos:station:wmo:42001:1,2015-09-08T20:20:00Z,25.8880,-89.6580,1013.4,1111122 
NDBC,ioos:station:wmo:42001:1,2015-09-08T21:10:00Z,25.8880,-89.6580,1012.6,1111122 
NDBC,ioos:station:wmo:42001:1,2015-09-08T22:20:00Z,25.8880,-89.6580,1013.0,1111122 
NDBC,ioos:station:wmo:42001:1,2015-09-08T23:20:00Z,25.8880,-89.6580,1013.0,1111122 
NDBC,ioos:station:wmo:42001:1,2015-09-09T01:40:00Z,25.8880,-89.6580,1013.4,1111122 
NDBC,ioos:station:wmo:42001:1,2015-09-09T02:40:00Z,25.8880,-89.6580,1013.9,1111122 
NDBC,ioos:station:wmo:42001:1,2015-09-09T03:40:00Z,25.8880,-89.6580,1014.8,1111122 
NDBC,ioos:station:wmo:42001:1,2015-09-09T04:30:00Z,25.8880,-89.6580,1014.8,1111122 
NDBC,ioos:station:wmo:42001:1,2015-09-09T05:40:00Z,25.8880,-89.6580,1014.6,1111122 
NDBC,ioos:station:wmo:42001:1,2015-09-09T06:30:00Z,25.8880,-89.6580,1014.5,1111122 
NDBC,ioos:station:wmo:42001:1,2015-09-09T07:20:00Z,25.8880,-89.6580,1014.1,1111122 
NDBC,ioos:station:wmo:42001:1,2015-09-09T08:20:00Z,25.8880,-89.6580,1014.0,1111122 
NDBC,ioos:station:wmo:42001:1,2015-09-09T09:40:00Z,25.8880,-89.6580,1013.9,1111122 
NDBC,ioos:station:wmo:42001:1,2015-09-09T10:40:00Z,25.8880,-89.6580,1014.1,1111122 
NDBC,ioos:station:wmo:42001:1,2015-09-09T11:40:00Z,25.8880,-89.6580,1014.6,1111122 
NDBC,ioos:station:wmo:42001:1,2015-09-09T12:20:00Z,25.8880,-89.6580,1015.0,1111122 
NDBC,ioos:station:wmo:42001:1,2015-09-09T13:40:00Z,25.8880,-89.6580,1015.5,1111122 
NDBC,ioos:station:wmo:42001:1,2015-09-09T14:40:00Z,25.8880,-89.6580,1015.5,1111122 
NDBC,ioos:station:wmo:42001:1,2015-09-09T15:00:00Z,25.8880,-89.6580,1015.8,1111122 
NDBC,ioos:station:wmo:42001:1,2015-09-09T16:20:00Z,25.8880,-89.6580,1017.0,1111122 
NDBC,ioos:station:wmo:42001:1,2015-09-09T17:10:00Z,25.8880,-89.6580,1016.8,1111122 
NDBC,ioos:station:wmo:42001:1,2015-09-09T18:20:00Z,25.8880,-89.6580,1016.5,1111122 
NDBC,ioos:station:wmo:42001:1,2015-09-09T19:10:00Z,25.8880,-89.6580,1016.0,1111122 
NDBC,ioos:station:wmo:42001:1,2015-09-09T20:20:00Z,25.8880,-89.6580,1015.4,1111122 
NDBC,ioos:station:wmo:42001:1,2015-09-09T21:10:00Z,25.8880,-89.6580,1014.5,1111122 
NDBC,ioos:station:wmo:42001:1,2015-09-09T21:50:00Z,25.8880,-89.6580,1013.8,1111122 
NDBC,ioos:station:wmo:42001:1,2015-09-09T22:00:00Z,25.8880,-89.6580,1013.9,1111122 
NDBC,ioos:station:wmo:42001:1,2015-09-09T23:20:00Z,25.8880,-89.6580,1013.6,1111122 
NDBC,ioos:station:wmo:42001:1,2015-09-10T00:40:00Z,25.8880,-89.6580,1014.3,1111122 
NDBC,ioos:station:wmo:42001:1,2015-09-10T02:20:00Z,25.8880,-89.6580,1015.4,1111122 
NDBC,ioos:station:wmo:42001:1,2015-09-10T03:40:00Z,25.8880,-89.6580,1015.5,1111122 
NDBC,ioos:station:wmo:42001:1,2015-09-10T04:30:00Z,25.8880,-89.6580,1015.5,1111122 
NDBC,ioos:station:wmo:42001:1,2015-09-10T05:30:00Z,25.8880,-89.6580,1015.3,1111122 
NDBC,ioos:station:wmo:42001:1,2015-09-10T06:30:00Z,25.8880,-89.6580,1014.9,1111122 
NDBC,ioos:station:wmo:42001:1,2015-09-10T07:50:00Z,25.8880,-89.6580,1014.5,1111122 
NDBC,ioos:station:wmo:42001:1,2015-09-10T08:20:00Z,25.8880,-89.6580,1014.6,1111122 
NDBC,ioos:station:wmo:42001:1,2015-09-10T09:30:00Z,25.8880,-89.6580,1014.8,1111122 
NDBC,ioos:station:wmo:42001:1,2015-09-10T10:30:00Z,25.8880,-89.6580,1014.8,1111122 
NDBC,ioos:station:wmo:42001:1,2015-09-10T11:40:00Z,25.8880,-89.6580,1015.4,1111122 
NDBC,ioos:station:wmo:42001:1,2015-09-10T12:30:00Z,25.8880,-89.6580,1016.0,1111122 
NDBC,ioos:station:wmo:42001:1,2015-09-10T13:20:00Z,25.8880,-89.6580,1016.1,1111122 
NDBC,ioos:station:wmo:42001:1,2015-09-10T14:40:00Z,25.8880,-89.6580,1016.5,1111122 
NDBC,ioos:station:wmo:42001:1,2015-09-10T15:40:00Z,25.8880,-89.6580,1016.8,1111122 
NDBC,ioos:station:wmo:42001:1,2015-09-10T16:30:00Z,25.8880,-89.6580,1016.5,1111122 
NDBC,ioos:station:wmo:42001:1,2015-09-10T17:40:00Z,25.8880,-89.6580,1015.9,1111122 
NDBC,ioos:station:wmo:42001:1,2015-09-10T18:10:00Z,25.8880,-89.6580,1015.6,1111122 
NDBC,ioos:station:wmo:42001:1,2015-09-10T19:20:00Z,25.8880,-89.6580,1014.5,1111122 
NDBC,ioos:station:wmo:42001:1,2015-09-10T19:40:00Z,25.8880,-89.6580,1014.3,1111122 
NDBC,ioos:station:wmo:42001:1,2015-09-10T21:10:00Z,25.8880,-89.6580,1013.6,1111122 
NDBC,ioos:station:wmo:42001:1,2015-09-10T22:50:00Z,25.8880,-89.6580,1013.5,1111122 
NDBC,ioos:station:wmo:42001:1,2015-09-10T23:50:00Z,25.8880,-89.6580,1013.6,1111122 
NDBC,ioos:station:wmo:42001:1,2015-09-11T00:20:00Z,25.8880,-89.6580,1013.8,1111122 
NDBC,ioos:station:wmo:42001:1,2015-09-11T03:20:00Z,25.8880,-89.6580,1015.8,1111122 
NDBC,ioos:station:wmo:42001:1,2015-09-11T04:00:00Z,25.8880,-89.6580,1015.8,1111122 
NDBC,ioos:station:wmo:42001:1,2015-09-11T05:00:00Z,25.8880,-89.6580,1015.5,1111122 
NDBC,ioos:station:wmo:42001:1,2015-09-11T05:20:00Z,25.8880,-89.6580,1015.3,1111122 
NDBC,ioos:station:wmo:42001:1,2015-09-11T09:40:00Z,25.8880,-89.6580,1014.0,1111122 
NDBC,ioos:station:wmo:42001:1,2015-09-11T10:30:00Z,25.8880,-89.6580,1014.0,1111122 
NDBC,ioos:station:wmo:42001:1,2015-09-11T11:20:00Z,25.8880,-89.6580,1014.1,1111122 
NDBC,ioos:station:wmo:42001:1,2015-09-11T12:40:00Z,25.8880,-89.6580,1014.4,1111122 
NDBC,ioos:station:wmo:42001:1,2015-09-11T13:20:00Z,25.8880,-89.6580,1014.5,1111122 
NDBC,ioos:station:wmo:42001:1,2015-09-11T15:30:00Z,25.8880,-89.6580,1014.6,1111122 
NDBC,ioos:station:wmo:42001:1,2015-09-11T16:40:00Z,25.8880,-89.6580,1015.0,1111122 
NDBC,ioos:station:wmo:42001:1,2015-09-11T17:40:00Z,25.8880,-89.6580,1014.9,1111122 
NDBC,ioos:station:wmo:42001:1,2015-09-11T18:40:00Z,25.8880,-89.6580,1014.1,1111122 
NDBC,ioos:station:wmo:42001:1,2015-09-11T19:20:00Z,25.8880,-89.6580,1013.6,1111122 
NDBC,ioos:station:wmo:42001:1,2015-09-11T20:20:00Z,25.8880,-89.6580,1013.1,1111122 
NDBC,ioos:station:wmo:42001:1,2015-09-11T21:30:00Z,25.8880,-89.6580,1012.3,1111122 
NDBC,ioos:station:wmo:42001:1,2015-09-11T22:30:00Z,25.8880,-89.6580,1012.5,1111122 
NDBC,ioos:station:wmo:42001:1,2015-09-11T23:10:00Z,25.8880,-89.6580,1012.5,1111122 
NDBC,ioos:station:wmo:42001:1,2015-09-11T23:30:00Z,25.8880,-89.6580,1012.5,1111122 
NDBC,ioos:station:wmo:42001:1,2015-09-12T00:10:00Z,25.8880,-89.6580,1012.6,1111122 
NDBC,ioos:station:wmo:42001:1,2015-09-12T01:20:00Z,25.8880,-89.6580,1013.0,1111122 
NDBC,ioos:station:wmo:42001:1,2015-09-12T04:20:00Z,25.8880,-89.6580,1013.5,1111122 
NDBC,ioos:station:wmo:42001:1,2015-09-12T04:40:00Z,25.8880,-89.6580,1013.5,1111122 
NDBC,ioos:station:wmo:42001:1,2015-09-12T05:40:00Z,25.8880,-89.6580,1013.8,1111122 
NDBC,ioos:station:wmo:42001:1,2015-09-12T06:20:00Z,25.8880,-89.6580,1013.5,1111122 
NDBC,ioos:station:wmo:42001:1,2015-09-12T08:20:00Z,25.8880,-89.6580,1012.6,1111122 
NDBC,ioos:station:wmo:42001:1,2015-09-12T11:20:00Z,25.8880,-89.6580,1012.0,1111122 
NDBC,ioos:station:wmo:42001:1,2015-09-12T12:20:00Z,25.8880,-89.6580,1012.5,1111122 
NDBC,ioos:station:wmo:42001:1,2015-09-12T13:30:00Z,25.8880,-89.6580,1013.0,1111122 
NDBC,ioos:station:wmo:42001:1,2015-09-12T14:20:00Z,25.8880,-89.6580,1013.3,1111122 
NDBC,ioos:station:wmo:42001:1,2015-09-12T15:20:00Z,25.8880,-89.6580,1013.4,1111122 
NDBC,ioos:station:wmo:42001:1,2015-09-12T16:30:00Z,25.8880,-89.6580,1014.5,1111122 
NDBC,ioos:station:wmo:42001:1,2015-09-12T17:20:00Z,25.8880,-89.6580,1015.0,1111122 
NDBC,ioos:station:wmo:42001:1,2015-09-12T18:30:00Z,25.8880,-89.6580,1014.5,1111122 
NDBC,ioos:station:wmo:42001:1,2015-09-12T19:40:00Z,25.8880,-89.6580,1013.6,1111122 
NDBC,ioos:station:wmo:42001:1,2015-09-12T20:20:00Z,25.8880,-89.6580,1013.0,1111122 
NDBC,ioos:station:wmo:42001:1,2015-09-12T21:20:00Z,25.8880,-89.6580,1012.8,1111122 
NDBC,ioos:station:wmo:42001:1,2015-09-12T22:00:00Z,25.8880,-89.6580,1012.8,1111122 
NDBC,ioos:station:wmo:42001:1,2015-09-12T22:30:00Z,25.8880,-89.6580,1013.0,1111122 
NDBC,ioos:station:wmo:42001:1,2015-09-13T00:30:00Z,25.8880,-89.6580,1012.5,1111122 
NDBC,ioos:station:wmo:42001:1,2015-09-13T01:30:00Z,25.8880,-89.6580,1013.1,1111122 
NDBC,ioos:station:wmo:42001:1,2015-09-13T02:30:00Z,25.8880,-89.6580,1014.0,1111122 
NDBC,ioos:station:wmo:42001:1,2015-09-13T03:30:00Z,25.8880,-89.6580,1014.5,1111122 
NDBC,ioos:station:wmo:42001:1,2015-09-13T04:20:00Z,25.8880,-89.6580,1014.8,1111122 
NDBC,ioos:station:wmo:42001:1,2015-09-13T05:00:00Z,25.8880,-89.6580,1014.5,1111122 
NDBC,ioos:station:wmo:42001:1,2015-09-13T05:40:00Z,25.8880,-89.6580,1014.3,1111122 
NDBC,ioos:station:wmo:42001:1,2015-09-13T06:20:00Z,25.8880,-89.6580,1013.6,1111122 
NDBC,ioos:station:wmo:42001:1,2015-09-13T09:00:00Z,25.8880,-89.6580,1013.0,1111122 
NDBC,ioos:station:wmo:42001:1,2015-09-13T09:20:00Z,25.8880,-89.6580,1013.0,1111122 
NDBC,ioos:station:wmo:42001:1,2015-09-13T10:40:00Z,25.8880,-89.6580,1013.4,1111122 
NDBC,ioos:station:wmo:42001:1,2015-09-13T11:20:00Z,25.8880,-89.6580,1013.6,1111122 
NDBC,ioos:station:wmo:42001:1,2015-09-13T13:40:00Z,25.8880,-89.6580,1014.5,1111122 
NDBC,ioos:station:wmo:42001:1,2015-09-13T14:20:00Z,25.8880,-89.6580,1015.0,1111122 
NDBC,ioos:station:wmo:42001:1,2015-09-13T15:30:00Z,25.8880,-89.6580,1015.5,1111122 
NDBC,ioos:station:wmo:42001:1,2015-09-13T16:30:00Z,25.8880,-89.6580,1015.9,1111122 
NDBC,ioos:station:wmo:42001:1,2015-09-13T17:40:00Z,25.8880,-89.6580,1015.5,1111122 
NDBC,ioos:station:wmo:42001:1,2015-09-13T18:40:00Z,25.8880,-89.6580,1015.4,1111122 
NDBC,ioos:station:wmo:42001:1,2015-09-13T19:20:00Z,25.8880,-89.6580,1015.0,1111122 
NDBC,ioos:station:wmo:42001:1,2015-09-13T20:40:00Z,25.8880,-89.6580,1014.1,1111122 
NDBC,ioos:station:wmo:42001:1,2015-09-13T21:30:00Z,25.8880,-89.6580,1013.9,1111122 